owner,sensor,date,latitude,longitude,vertical_datum,direction_of_sea_water_velocity,sea_water_speed,upward_sea_water_velocity,qcFlag 
TABS,ioos:station:wmo:42043:1,1997-07-01T00:00:00Z,28.9818,-94.9186,2.0,75.04731002,45.03492534,-99999.0,'11111222,11111222,99999999' 
TABS,ioos:station:wmo:42043:1,1997-07-01T00:30:00Z,28.9818,-94.9186,2.0,73.56257942,43.18500666,-99999.0,'11111222,11111222,99999999' 
TABS,ioos:station:wmo:42043:1,1997-07-01T01:00:00Z,28.9818,-94.9186,2.0,72.89731102,40.53238212,-99999.0,'11111222,11111222,99999999' 
TABS,ioos:station:wmo:42043:1,1997-07-01T01:30:00Z,28.9818,-94.9186,2.0,70.34718851,39.87267987,-99999.0,'11111222,11111222,99999999' 
TABS,ioos:station:wmo:42043:1,1997-07-01T02:00:00Z,28.9818,-94.9186,2.0,64.2434693,37.71727721,-99999.0,'11111222,11111222,99999999' 
TABS,ioos:station:wmo:42043:1,1997-07-01T02:30:00Z,28.9818,-94.9186,2.0,64.07357374,36.11474076,-99999.0,'11111222,11111222,99999999' 
TABS,ioos:station:wmo:42043:1,1997-07-01T03:00:00Z,28.9818,-94.9186,2.0,56.31463299,34.38309177,-99999.0,'11111222,11111222,99999999' 
TABS,ioos:station:wmo:42043:1,1997-07-01T03:30:00Z,28.9818,-94.9186,2.0,50.12561966,33.00537078,-99999.0,'11111222,11111222,99999999' 
TABS,ioos:station:wmo:42043:1,1997-07-01T04:00:00Z,28.9818,-94.9186,2.0,46.10395488,32.66732465,-99999.0,'11111222,11111222,99999999' 
TABS,ioos:station:wmo:42043:1,1997-07-01T04:30:00Z,28.9818,-94.9186,2.0,39.96633004,28.77,-99999.0,'11111222,11111222,99999999' 
TABS,ioos:station:wmo:42043:1,1997-07-01T05:00:00Z,28.9818,-94.9186,2.0,36.11855032,27.29634774,-99999.0,'11111222,11111222,99999999' 
TABS,ioos:station:wmo:42043:1,1997-07-01T05:30:00Z,28.9818,-94.9186,2.0,29.7450222,24.02552809,-99999.0,'11111222,11111222,99999999' 
TABS,ioos:station:wmo:42043:1,1997-07-01T06:00:00Z,28.9818,-94.9186,2.0,8.816103455,17.48658915,-99999.0,'11111222,11111222,99999999' 
TABS,ioos:station:wmo:42043:1,1997-07-01T06:30:00Z,28.9818,-94.9186,2.0,8.461058619,22.29261986,-99999.0,'11111222,11111222,99999999' 
TABS,ioos:station:wmo:42043:1,1997-07-01T07:00:00Z,28.9818,-94.9186,2.0,2.459248698,27.73554038,-99999.0,'11111222,11111222,99999999' 
TABS,ioos:station:wmo:42043:1,1997-07-01T07:30:00Z,28.9818,-94.9186,2.0,11.8888407,28.93056688,-99999.0,'11111222,11111222,99999999' 
TABS,ioos:station:wmo:42043:1,1997-07-01T08:00:00Z,28.9818,-94.9186,2.0,22.88345587,29.11107693,-99999.0,'11111222,11111222,99999999' 
TABS,ioos:station:wmo:42043:1,1997-07-01T08:30:00Z,28.9818,-94.9186,2.0,28.78497816,30.94356799,-99999.0,'11111222,11111222,99999999' 
TABS,ioos:station:wmo:42043:1,1997-07-01T09:00:00Z,28.9818,-94.9186,2.0,35.349159,31.42306955,-99999.0,'11111222,11111222,99999999' 
TABS,ioos:station:wmo:42043:1,1997-07-01T09:30:00Z,28.9818,-94.9186,2.0,40.48149641,32.13180978,-99999.0,'11111222,11111222,99999999' 
TABS,ioos:station:wmo:42043:1,1997-07-01T10:00:00Z,28.9818,-94.9186,2.0,40.24421002,30.44678144,-99999.0,'11111222,11111222,99999999' 
TABS,ioos:station:wmo:42043:1,1997-07-01T10:30:00Z,28.9818,-94.9186,2.0,39.88221335,30.67638342,-99999.0,'11111222,11111222,99999999' 
TABS,ioos:station:wmo:42043:1,1997-07-01T11:00:00Z,28.9818,-94.9186,2.0,45.00010523,30.34902305,-99999.0,'11111222,11111222,99999999' 
TABS,ioos:station:wmo:42043:1,1997-07-01T11:30:00Z,28.9818,-94.9186,2.0,46.61116285,29.92951887,-99999.0,'11111222,11111222,99999999' 
TABS,ioos:station:wmo:42043:1,1997-07-01T12:00:00Z,28.9818,-94.9186,2.0,53.13385127,31.28600006,-99999.0,'11111222,11111222,99999999' 
TABS,ioos:station:wmo:42043:1,1997-07-01T12:30:00Z,28.9818,-94.9186,2.0,61.70435005,30.80023377,-99999.0,'11111222,11111222,99999999' 
TABS,ioos:station:wmo:42043:1,1997-07-01T13:00:00Z,28.9818,-94.9186,2.0,62.96602568,32.78185474,-99999.0,'11111222,11111222,99999999' 
TABS,ioos:station:wmo:42043:1,1997-07-01T13:30:00Z,28.9818,-94.9186,2.0,67.99437981,30.21096655,-99999.0,'11111222,11111222,99999999' 
TABS,ioos:station:wmo:42043:1,1997-07-01T14:00:00Z,28.9818,-94.9186,2.0,73.08250486,28.66028611,-99999.0,'11111222,11111222,99999999' 
TABS,ioos:station:wmo:42043:1,1997-07-01T14:30:00Z,28.9818,-94.9186,2.0,75.48049495,26.16567408,-99999.0,'11111222,11111222,99999999' 
TABS,ioos:station:wmo:42043:1,1997-07-01T15:00:00Z,28.9818,-94.9186,2.0,73.04734244,25.55026614,-99999.0,'11111222,11111222,99999999' 
TABS,ioos:station:wmo:42043:1,1997-07-01T15:30:00Z,28.9818,-94.9186,2.0,71.55797416,25.44684853,-99999.0,'11111222,11111222,99999999' 
TABS,ioos:station:wmo:42043:1,1997-07-01T16:00:00Z,28.9818,-94.9186,2.0,75.20210321,26.81953393,-99999.0,'11111222,11111222,99999999' 
TABS,ioos:station:wmo:42043:1,1997-07-01T16:30:00Z,28.9818,-94.9186,2.0,73.028243,29.59908276,-99999.0,'11111222,11111222,99999999' 
TABS,ioos:station:wmo:42043:1,1997-07-01T17:00:00Z,28.9818,-94.9186,2.0,78.69831076,27.35035649,-99999.0,'11111222,11111222,99999999' 
TABS,ioos:station:wmo:42043:1,1997-07-01T17:30:00Z,28.9818,-94.9186,2.0,80.89974632,22.63490446,-99999.0,'11111222,11111222,99999999' 
TABS,ioos:station:wmo:42043:1,1997-07-01T18:00:00Z,28.9818,-94.9186,2.0,77.95254916,22.85334549,-99999.0,'11111222,11111222,99999999' 
TABS,ioos:station:wmo:42043:1,1997-07-01T18:30:00Z,28.9818,-94.9186,2.0,82.24135149,19.85173292,-99999.0,'11111222,11111222,99999999' 
TABS,ioos:station:wmo:42043:1,1997-07-01T19:00:00Z,28.9818,-94.9186,2.0,82.77358555,18.92028805,-99999.0,'11111222,11111222,99999999' 
TABS,ioos:station:wmo:42043:1,1997-07-01T19:30:00Z,28.9818,-94.9186,2.0,80.69108786,18.42261654,-99999.0,'11111222,11111222,99999999' 
TABS,ioos:station:wmo:42043:1,1997-07-01T20:00:00Z,28.9818,-94.9186,2.0,80.71352247,16.60766389,-99999.0,'11111222,11111222,99999999' 
TABS,ioos:station:wmo:42043:1,1997-07-01T20:30:00Z,28.9818,-94.9186,2.0,90.0,13.71,-99999.0,'11111222,11111222,99999999' 
TABS,ioos:station:wmo:42043:1,1997-07-01T21:00:00Z,28.9818,-94.9186,2.0,90.96124614,17.8825166,-99999.0,'11111222,11111222,99999999' 
TABS,ioos:station:wmo:42043:1,1997-07-01T21:30:00Z,28.9818,-94.9186,2.0,97.13767478,16.82035077,-99999.0,'11111222,11111222,99999999' 
TABS,ioos:station:wmo:42043:1,1997-07-01T22:00:00Z,28.9818,-94.9186,2.0,100.1965004,15.13910169,-99999.0,'11111222,11111222,99999999' 
TABS,ioos:station:wmo:42043:1,1997-07-01T22:30:00Z,28.9818,-94.9186,2.0,97.8290582,15.3430147,-99999.0,'11111222,11111222,99999999' 
TABS,ioos:station:wmo:42043:1,1997-07-01T23:00:00Z,28.9818,-94.9186,2.0,101.0605513,13.9694846,-99999.0,'11111222,11111222,99999999' 
TABS,ioos:station:wmo:42043:1,1997-07-01T23:30:00Z,28.9818,-94.9186,2.0,101.3016892,13.67517824,-99999.0,'11111222,11111222,99999999' 
TABS,ioos:station:wmo:42043:1,1997-07-02T00:00:00Z,28.9818,-94.9186,2.0,100.2894379,13.32428234,-99999.0,'11111222,11111222,99999999' 
TABS,ioos:station:wmo:42043:1,1997-07-02T00:30:00Z,28.9818,-94.9186,2.0,94.37984162,11.65403364,-99999.0,'11111222,11111222,99999999' 
TABS,ioos:station:wmo:42043:1,1997-07-02T01:00:00Z,28.9818,-94.9186,2.0,81.66653208,12.35040485,-99999.0,'11111222,11111222,99999999' 
TABS,ioos:station:wmo:42043:1,1997-07-02T01:30:00Z,28.9818,-94.9186,2.0,73.82559091,9.620810777,-99999.0,'11133222,11111222,99999999' 
TABS,ioos:station:wmo:42043:1,1997-07-02T02:00:00Z,28.9818,-94.9186,2.0,60.67083743,10.94263222,-99999.0,'11111222,11111222,99999999' 
TABS,ioos:station:wmo:42043:1,1997-07-02T02:30:00Z,28.9818,-94.9186,2.0,55.93315715,12.22863034,-99999.0,'11111222,11111222,99999999' 
TABS,ioos:station:wmo:42043:1,1997-07-02T03:00:00Z,28.9818,-94.9186,2.0,43.30379021,14.3322643,-99999.0,'11111222,11111222,99999999' 
TABS,ioos:station:wmo:42043:1,1997-07-02T03:30:00Z,28.9818,-94.9186,2.0,42.07011067,16.46175264,-99999.0,'11111222,11111222,99999999' 
TABS,ioos:station:wmo:42043:1,1997-07-02T04:00:00Z,28.9818,-94.9186,2.0,40.03939309,19.46176765,-99999.0,'11111222,11111222,99999999' 
TABS,ioos:station:wmo:42043:1,1997-07-02T04:30:00Z,28.9818,-94.9186,2.0,40.19483108,22.62207771,-99999.0,'11111222,11111222,99999999' 
TABS,ioos:station:wmo:42043:1,1997-07-02T05:00:00Z,28.9818,-94.9186,2.0,44.02234563,24.44824125,-99999.0,'11111222,11111222,99999999' 
TABS,ioos:station:wmo:42043:1,1997-07-02T05:30:00Z,28.9818,-94.9186,2.0,47.68644976,27.00580123,-99999.0,'11111222,11111222,99999999' 
TABS,ioos:station:wmo:42043:1,1997-07-02T06:00:00Z,28.9818,-94.9186,2.0,41.53804027,27.86844093,-99999.0,'11111222,11111222,99999999' 
TABS,ioos:station:wmo:42043:1,1997-07-02T06:30:00Z,28.9818,-94.9186,2.0,39.80043584,27.93252584,-99999.0,'11111222,11111222,99999999' 
TABS,ioos:station:wmo:42043:1,1997-07-02T07:00:00Z,28.9818,-94.9186,2.0,40.8696837,26.40831877,-99999.0,'11111222,11111222,99999999' 
TABS,ioos:station:wmo:42043:1,1997-07-02T07:30:00Z,28.9818,-94.9186,2.0,55.78087206,27.0289197,-99999.0,'11111222,11111222,99999999' 
TABS,ioos:station:wmo:42043:1,1997-07-02T08:00:00Z,28.9818,-94.9186,2.0,58.23192652,29.44063349,-99999.0,'11111222,11111222,99999999' 
TABS,ioos:station:wmo:42043:1,1997-07-02T08:30:00Z,28.9818,-94.9186,2.0,60.40622191,27.76155075,-99999.0,'11111222,11111222,99999999' 
TABS,ioos:station:wmo:42043:1,1997-07-02T09:00:00Z,28.9818,-94.9186,2.0,59.14658449,26.73324896,-99999.0,'11111222,11111222,99999999' 
TABS,ioos:station:wmo:42043:1,1997-07-02T09:30:00Z,28.9818,-94.9186,2.0,61.39266937,29.86600743,-99999.0,'11111222,11111222,99999999' 
TABS,ioos:station:wmo:42043:1,1997-07-02T10:00:00Z,28.9818,-94.9186,2.0,55.37998579,30.41544509,-99999.0,'11111222,11111222,99999999' 
TABS,ioos:station:wmo:42043:1,1997-07-02T10:30:00Z,28.9818,-94.9186,2.0,58.12130231,28.78113271,-99999.0,'11111222,11111222,99999999' 
TABS,ioos:station:wmo:42043:1,1997-07-02T11:00:00Z,28.9818,-94.9186,2.0,54.00811468,30.93563156,-99999.0,'11111222,11111222,99999999' 
TABS,ioos:station:wmo:42043:1,1997-07-02T11:30:00Z,28.9818,-94.9186,2.0,67.26716356,33.92545062,-99999.0,'11111222,11111222,99999999' 
TABS,ioos:station:wmo:42043:1,1997-07-02T12:00:00Z,28.9818,-94.9186,2.0,68.83150138,35.47368743,-99999.0,'11111222,11111222,99999999' 
TABS,ioos:station:wmo:42043:1,1997-07-02T12:30:00Z,28.9818,-94.9186,2.0,71.42102334,36.47066355,-99999.0,'11111222,11111222,99999999' 
TABS,ioos:station:wmo:42043:1,1997-07-02T13:00:00Z,28.9818,-94.9186,2.0,69.23527338,39.51686475,-99999.0,'11111222,11111222,99999999' 
TABS,ioos:station:wmo:42043:1,1997-07-02T13:30:00Z,28.9818,-94.9186,2.0,69.688251,40.35966551,-99999.0,'11111222,11111222,99999999' 
TABS,ioos:station:wmo:42043:1,1997-07-02T14:00:00Z,28.9818,-94.9186,2.0,59.40713619,47.4323571,-99999.0,'11111222,11111222,99999999' 
TABS,ioos:station:wmo:42043:1,1997-07-02T14:30:00Z,28.9818,-94.9186,2.0,50.63468855,49.33278524,-99999.0,'11111222,11111222,99999999' 
TABS,ioos:station:wmo:42043:1,1997-07-02T15:00:00Z,28.9818,-94.9186,2.0,48.68379463,49.1960659,-99999.0,'11111222,11111222,99999999' 
TABS,ioos:station:wmo:42043:1,1997-07-02T15:30:00Z,28.9818,-94.9186,2.0,50.80064501,54.22281162,-99999.0,'11111222,11111222,99999999' 
TABS,ioos:station:wmo:42043:1,1997-07-02T16:00:00Z,28.9818,-94.9186,2.0,51.68464834,54.30728312,-99999.0,'11111222,11111222,99999999' 
TABS,ioos:station:wmo:42043:1,1997-07-02T16:30:00Z,28.9818,-94.9186,2.0,53.06871258,54.05603112,-99999.0,'11111222,11111222,99999999' 
TABS,ioos:station:wmo:42043:1,1997-07-02T17:00:00Z,28.9818,-94.9186,2.0,52.18475679,50.54488105,-99999.0,'11111222,11111222,99999999' 
TABS,ioos:station:wmo:42043:1,1997-07-02T17:30:00Z,28.9818,-94.9186,2.0,65.65534765,54.94566498,-99999.0,'11111222,11111222,99999999' 
TABS,ioos:station:wmo:42043:1,1997-07-02T18:00:00Z,28.9818,-94.9186,2.0,76.73562507,48.07249733,-99999.0,'11111222,11111222,99999999' 
TABS,ioos:station:wmo:42043:1,1997-07-02T18:30:00Z,28.9818,-94.9186,2.0,79.76505433,46.93689061,-99999.0,'11111222,11111222,99999999' 
TABS,ioos:station:wmo:42043:1,1997-07-02T19:00:00Z,28.9818,-94.9186,2.0,84.02699165,45.83885906,-99999.0,'11111222,11111222,99999999' 
TABS,ioos:station:wmo:42043:1,1997-07-02T19:30:00Z,28.9818,-94.9186,2.0,88.36617122,41.73696803,-99999.0,'11111222,11111222,99999999' 
TABS,ioos:station:wmo:42043:1,1997-07-02T20:00:00Z,28.9818,-94.9186,2.0,91.25795536,40.5397706,-99999.0,'11111222,11111222,99999999' 
TABS,ioos:station:wmo:42043:1,1997-07-02T20:30:00Z,28.9818,-94.9186,2.0,90.48065689,35.76125837,-99999.0,'11111222,11111222,99999999' 
TABS,ioos:station:wmo:42043:1,1997-07-02T21:00:00Z,28.9818,-94.9186,2.0,92.44676256,34.90181944,-99999.0,'11111222,11111222,99999999' 
TABS,ioos:station:wmo:42043:1,1997-07-02T21:30:00Z,28.9818,-94.9186,2.0,90.5291935,32.48138544,-99999.0,'11111222,11111222,99999999' 
TABS,ioos:station:wmo:42043:1,1997-07-02T22:00:00Z,28.9818,-94.9186,2.0,91.13068831,30.40592048,-99999.0,'11111222,11111222,99999999' 
TABS,ioos:station:wmo:42043:1,1997-07-02T22:30:00Z,28.9818,-94.9186,2.0,89.39922881,28.61157283,-99999.0,'11111222,11111222,99999999' 
TABS,ioos:station:wmo:42043:1,1997-07-02T23:00:00Z,28.9818,-94.9186,2.0,87.64291422,28.93448116,-99999.0,'11111222,11111222,99999999' 
TABS,ioos:station:wmo:42043:1,1997-07-02T23:30:00Z,28.9818,-94.9186,2.0,87.37238675,25.95729185,-99999.0,'11111222,11111222,99999999' 
TABS,ioos:station:wmo:42043:1,1997-07-03T00:00:00Z,28.9818,-94.9186,2.0,84.36933041,24.25704022,-99999.0,'11111222,11111222,99999999' 
TABS,ioos:station:wmo:42043:1,1997-07-03T00:30:00Z,28.9818,-94.9186,2.0,75.41348117,22.47438764,-99999.0,'11111222,11111222,99999999' 
TABS,ioos:station:wmo:42043:1,1997-07-03T01:00:00Z,28.9818,-94.9186,2.0,67.33334784,21.64154569,-99999.0,'11111222,11111222,99999999' 
TABS,ioos:station:wmo:42043:1,1997-07-03T01:30:00Z,28.9818,-94.9186,2.0,61.324391,21.73591038,-99999.0,'11111222,11111222,99999999' 
TABS,ioos:station:wmo:42043:1,1997-07-03T02:00:00Z,28.9818,-94.9186,2.0,52.97921225,22.77007905,-99999.0,'11111222,11111222,99999999' 
TABS,ioos:station:wmo:42043:1,1997-07-03T02:30:00Z,28.9818,-94.9186,2.0,50.11277984,26.02608307,-99999.0,'11111222,11111222,99999999' 
TABS,ioos:station:wmo:42043:1,1997-07-03T03:00:00Z,28.9818,-94.9186,2.0,40.53249001,27.05124766,-99999.0,'11111222,11111222,99999999' 
TABS,ioos:station:wmo:42043:1,1997-07-03T03:30:00Z,28.9818,-94.9186,2.0,36.18886401,30.28213995,-99999.0,'11111222,11111222,99999999' 
TABS,ioos:station:wmo:42043:1,1997-07-03T04:00:00Z,28.9818,-94.9186,2.0,38.50503228,33.50564132,-99999.0,'11111222,11111222,99999999' 
TABS,ioos:station:wmo:42043:1,1997-07-03T04:30:00Z,28.9818,-94.9186,2.0,36.68865933,37.91018992,-99999.0,'11111222,11111222,99999999' 
TABS,ioos:station:wmo:42043:1,1997-07-03T05:00:00Z,28.9818,-94.9186,2.0,37.38595122,39.75761185,-99999.0,'11111222,11111222,99999999' 
TABS,ioos:station:wmo:42043:1,1997-07-03T05:30:00Z,28.9818,-94.9186,2.0,30.96143586,39.96431533,-99999.0,'11111222,11111222,99999999' 
TABS,ioos:station:wmo:42043:1,1997-07-03T06:00:00Z,28.9818,-94.9186,2.0,33.00609319,41.58051707,-99999.0,'11111222,11111222,99999999' 
TABS,ioos:station:wmo:42043:1,1997-07-03T06:30:00Z,28.9818,-94.9186,2.0,37.02614043,44.04016349,-99999.0,'11111222,11111222,99999999' 
TABS,ioos:station:wmo:42043:1,1997-07-03T07:00:00Z,28.9818,-94.9186,2.0,37.94948908,44.58791316,-99999.0,'11111222,11111222,99999999' 
TABS,ioos:station:wmo:42043:1,1997-07-03T07:30:00Z,28.9818,-94.9186,2.0,42.92103598,46.38845762,-99999.0,'11111222,11111222,99999999' 
TABS,ioos:station:wmo:42043:1,1997-07-03T08:00:00Z,28.9818,-94.9186,2.0,43.95078716,45.94843305,-99999.0,'11111222,11111222,99999999' 
TABS,ioos:station:wmo:42043:1,1997-07-03T08:30:00Z,28.9818,-94.9186,2.0,45.75384038,47.83991325,-99999.0,'11111222,11111222,99999999' 
TABS,ioos:station:wmo:42043:1,1997-07-03T09:00:00Z,28.9818,-94.9186,2.0,47.96416935,48.95485676,-99999.0,'11111222,11111222,99999999' 
TABS,ioos:station:wmo:42043:1,1997-07-03T09:30:00Z,28.9818,-94.9186,2.0,49.72428503,51.17038206,-99999.0,'11111222,11111222,99999999' 
TABS,ioos:station:wmo:42043:1,1997-07-03T10:00:00Z,28.9818,-94.9186,2.0,51.29541348,53.84560613,-99999.0,'11111222,11111222,99999999' 
TABS,ioos:station:wmo:42043:1,1997-07-03T10:30:00Z,28.9818,-94.9186,2.0,52.22838155,56.92905146,-99999.0,'11111222,11111222,99999999' 
TABS,ioos:station:wmo:42043:1,1997-07-03T11:00:00Z,28.9818,-94.9186,2.0,54.46353493,58.96196486,-99999.0,'11111222,11111222,99999999' 
TABS,ioos:station:wmo:42043:1,1997-07-03T11:30:00Z,28.9818,-94.9186,2.0,60.64490838,60.17684355,-99999.0,'11111222,11111222,99999999' 
TABS,ioos:station:wmo:42043:1,1997-07-03T12:00:00Z,28.9818,-94.9186,2.0,63.18205168,60.77691996,-99999.0,'11111222,11111222,99999999' 
TABS,ioos:station:wmo:42043:1,1997-07-03T12:30:00Z,28.9818,-94.9186,2.0,63.06622219,61.8375048,-99999.0,'11111222,11111222,99999999' 
TABS,ioos:station:wmo:42043:1,1997-07-03T13:00:00Z,28.9818,-94.9186,2.0,61.97803343,62.79120082,-99999.0,'11111222,11111222,99999999' 
TABS,ioos:station:wmo:42043:1,1997-07-03T13:30:00Z,28.9818,-94.9186,2.0,62.69970174,62.37801696,-99999.0,'11111222,11111222,99999999' 
TABS,ioos:station:wmo:42043:1,1997-07-03T14:00:00Z,28.9818,-94.9186,2.0,54.84954677,61.59172996,-99999.0,'11111222,11111222,99999999' 
TABS,ioos:station:wmo:42043:1,1997-07-03T14:30:00Z,28.9818,-94.9186,2.0,54.53106981,61.1102651,-99999.0,'11111222,11111222,99999999' 
TABS,ioos:station:wmo:42043:1,1997-07-03T15:00:00Z,28.9818,-94.9186,2.0,56.92733398,54.05867183,-99999.0,'11111222,11111222,99999999' 
TABS,ioos:station:wmo:42043:1,1997-07-03T15:30:00Z,28.9818,-94.9186,2.0,61.535875,56.2724915,-99999.0,'11111222,11111222,99999999' 
TABS,ioos:station:wmo:42043:1,1997-07-03T16:00:00Z,28.9818,-94.9186,2.0,69.76393798,62.88133666,-99999.0,'11111222,11111222,99999999' 
TABS,ioos:station:wmo:42043:1,1997-07-03T16:30:00Z,28.9818,-94.9186,2.0,72.57733099,74.64456377,-99999.0,'11111222,11111222,99999999' 
TABS,ioos:station:wmo:42043:1,1997-07-03T17:00:00Z,28.9818,-94.9186,2.0,73.87922586,79.41263501,-99999.0,'11111222,11111222,99999999' 
TABS,ioos:station:wmo:42043:1,1997-07-03T17:30:00Z,28.9818,-94.9186,2.0,74.56060413,73.88638102,-99999.0,'11111222,11111222,99999999' 
TABS,ioos:station:wmo:42043:1,1997-07-03T18:00:00Z,28.9818,-94.9186,2.0,75.84979101,73.13918785,-99999.0,'11111222,11111222,99999999' 
TABS,ioos:station:wmo:42043:1,1997-07-03T18:30:00Z,28.9818,-94.9186,2.0,78.24906539,68.79173352,-99999.0,'11111222,11111222,99999999' 
TABS,ioos:station:wmo:42043:1,1997-07-03T19:00:00Z,28.9818,-94.9186,2.0,76.59137194,59.12160519,-99999.0,'11111222,11111222,99999999' 
TABS,ioos:station:wmo:42043:1,1997-07-03T19:30:00Z,28.9818,-94.9186,2.0,76.49576706,54.85664682,-99999.0,'11111222,11111222,99999999' 
TABS,ioos:station:wmo:42043:1,1997-07-03T20:00:00Z,28.9818,-94.9186,2.0,84.68978194,67.64029938,-99999.0,'11111222,11111222,99999999' 
TABS,ioos:station:wmo:42043:1,1997-07-03T20:30:00Z,28.9818,-94.9186,2.0,81.78069807,56.30839547,-99999.0,'11111222,11111222,99999999' 
TABS,ioos:station:wmo:42043:1,1997-07-03T21:00:00Z,28.9818,-94.9186,2.0,82.53630672,68.8231153,-99999.0,'11111222,11111222,99999999' 
TABS,ioos:station:wmo:42043:1,1997-07-03T21:30:00Z,28.9818,-94.9186,2.0,84.18104271,64.70340408,-99999.0,'11111222,11111222,99999999' 
TABS,ioos:station:wmo:42043:1,1997-07-03T22:00:00Z,28.9818,-94.9186,2.0,83.87547812,69.8285572,-99999.0,'11111222,11111222,99999999' 
TABS,ioos:station:wmo:42043:1,1997-07-03T22:30:00Z,28.9818,-94.9186,2.0,84.98660432,68.20091788,-99999.0,'11111222,11111222,99999999' 
TABS,ioos:station:wmo:42043:1,1997-07-03T23:00:00Z,28.9818,-94.9186,2.0,87.27369538,62.6509122,-99999.0,'11111222,11111222,99999999' 
TABS,ioos:station:wmo:42043:1,1997-07-03T23:30:00Z,28.9818,-94.9186,2.0,85.34602168,62.48602484,-99999.0,'11111222,11111222,99999999' 
TABS,ioos:station:wmo:42043:1,1997-07-04T00:00:00Z,28.9818,-94.9186,2.0,83.30536847,63.9057384,-99999.0,'11111222,11111222,99999999' 
TABS,ioos:station:wmo:42043:1,1997-07-04T00:30:00Z,28.9818,-94.9186,2.0,78.34933577,59.0261171,-99999.0,'11111222,11111222,99999999' 
TABS,ioos:station:wmo:42043:1,1997-07-04T01:00:00Z,28.9818,-94.9186,2.0,70.34543097,48.72908987,-99999.0,'11111222,11111222,99999999' 
TABS,ioos:station:wmo:42043:1,1997-07-04T01:30:00Z,28.9818,-94.9186,2.0,67.93215204,59.48814504,-99999.0,'11111222,11111222,99999999' 
TABS,ioos:station:wmo:42043:1,1997-07-04T02:00:00Z,28.9818,-94.9186,2.0,65.77053481,58.82167288,-99999.0,'11111222,11111222,99999999' 
TABS,ioos:station:wmo:42043:1,1997-07-04T02:30:00Z,28.9818,-94.9186,2.0,66.18723665,58.30340642,-99999.0,'11111222,11111222,99999999' 
TABS,ioos:station:wmo:42043:1,1997-07-04T03:00:00Z,28.9818,-94.9186,2.0,61.0550226,60.95412701,-99999.0,'11111222,11111222,99999999' 
TABS,ioos:station:wmo:42043:1,1997-07-04T03:30:00Z,28.9818,-94.9186,2.0,60.02782578,65.01455837,-99999.0,'11111222,11111222,99999999' 
TABS,ioos:station:wmo:42043:1,1997-07-04T04:00:00Z,28.9818,-94.9186,2.0,56.02400407,66.11831365,-99999.0,'11111222,11111222,99999999' 
TABS,ioos:station:wmo:42043:1,1997-07-04T04:30:00Z,28.9818,-94.9186,2.0,56.17549291,68.51675707,-99999.0,'11111222,11111222,99999999' 
TABS,ioos:station:wmo:42043:1,1997-07-04T05:00:00Z,28.9818,-94.9186,2.0,54.64920509,74.16406273,-99999.0,'11111222,11111222,99999999' 
TABS,ioos:station:wmo:42043:1,1997-07-04T05:30:00Z,28.9818,-94.9186,2.0,50.6807074,76.65203781,-99999.0,'11111222,11111222,99999999' 
TABS,ioos:station:wmo:42043:1,1997-07-04T06:00:00Z,28.9818,-94.9186,2.0,50.08609969,78.48674793,-99999.0,'11111222,11111222,99999999' 
TABS,ioos:station:wmo:42043:1,1997-07-04T06:30:00Z,28.9818,-94.9186,2.0,48.47598471,80.00782212,-99999.0,'11111222,11111222,99999999' 
TABS,ioos:station:wmo:42043:1,1997-07-04T07:00:00Z,28.9818,-94.9186,2.0,47.9307356,78.28010347,-99999.0,'11111222,11111222,99999999' 
TABS,ioos:station:wmo:42043:1,1997-07-04T07:30:00Z,28.9818,-94.9186,2.0,50.11695861,80.39315021,-99999.0,'11111222,11111222,99999999' 
TABS,ioos:station:wmo:42043:1,1997-07-04T08:00:00Z,28.9818,-94.9186,2.0,50.77396265,79.63532947,-99999.0,'11111222,11111222,99999999' 
TABS,ioos:station:wmo:42043:1,1997-07-04T08:30:00Z,28.9818,-94.9186,2.0,51.47610633,80.37349065,-99999.0,'11111222,11111222,99999999' 
TABS,ioos:station:wmo:42043:1,1997-07-04T09:00:00Z,28.9818,-94.9186,2.0,53.21524693,78.1380861,-99999.0,'11111222,11111222,99999999' 
TABS,ioos:station:wmo:42043:1,1997-07-04T09:30:00Z,28.9818,-94.9186,2.0,53.3439773,79.86455597,-99999.0,'11111222,11111222,99999999' 
TABS,ioos:station:wmo:42043:1,1997-07-04T10:00:00Z,28.9818,-94.9186,2.0,53.39183084,77.95881284,-99999.0,'11111222,11111222,99999999' 
TABS,ioos:station:wmo:42043:1,1997-07-04T10:30:00Z,28.9818,-94.9186,2.0,59.37351735,77.22200528,-99999.0,'11111222,11111222,99999999' 
TABS,ioos:station:wmo:42043:1,1997-07-04T11:00:00Z,28.9818,-94.9186,2.0,62.55396167,78.23585176,-99999.0,'11111222,11111222,99999999' 
TABS,ioos:station:wmo:42043:1,1997-07-04T11:30:00Z,28.9818,-94.9186,2.0,67.47737254,79.36319109,-99999.0,'11111222,11111222,99999999' 
TABS,ioos:station:wmo:42043:1,1997-07-04T12:00:00Z,28.9818,-94.9186,2.0,69.39178299,77.05056002,-99999.0,'11111222,11111222,99999999' 
TABS,ioos:station:wmo:42043:1,1997-07-04T12:30:00Z,28.9818,-94.9186,2.0,73.50796648,86.09190496,-99999.0,'11111222,11111222,99999999' 
TABS,ioos:station:wmo:42043:1,1997-07-04T13:00:00Z,28.9818,-94.9186,2.0,74.50828904,88.13192668,-99999.0,'11111222,11111222,99999999' 
TABS,ioos:station:wmo:42043:1,1997-07-04T13:30:00Z,28.9818,-94.9186,2.0,76.05715105,87.8174157,-99999.0,'11111222,11111222,99999999' 
TABS,ioos:station:wmo:42043:1,1997-07-04T14:00:00Z,28.9818,-94.9186,2.0,77.19605444,87.40337408,-99999.0,'11111222,11111222,99999999' 
TABS,ioos:station:wmo:42043:1,1997-07-04T14:30:00Z,28.9818,-94.9186,2.0,78.53097269,85.44616843,-99999.0,'11111222,11111222,99999999' 
TABS,ioos:station:wmo:42043:1,1997-07-04T15:00:00Z,28.9818,-94.9186,2.0,78.32885683,83.98644295,-99999.0,'11111222,11111222,99999999' 
TABS,ioos:station:wmo:42043:1,1997-07-04T15:30:00Z,28.9818,-94.9186,2.0,78.6088505,82.98466485,-99999.0,'11111222,11111222,99999999' 
TABS,ioos:station:wmo:42043:1,1997-07-04T16:00:00Z,28.9818,-94.9186,2.0,77.70668508,78.38739822,-99999.0,'11111222,11111222,99999999' 